AF5AA Weather Reports


Display with metric or nautical units.
time (UTC)temp
F
wind
direction
speed
MPH
gust
MPH
rain 1hr
in
rain 24hr
in
rain mn
in
humidity
%
barometer
mb
20220528072751 59 51 0.0 0.0 0.00 0.00 0.00 95 1013.4
20220528072249 59 51 0.0 0.0 0.00 0.00 0.00 95 1013.4
20220528071748 59 51 0.0 0.0 0.00 0.00 0.00 95 1013.4
20220528071247 59 51 0.0 0.0 0.00 0.00 0.00 95 1013.5
20220528070745 59 51 0.0 0.0 0.00 0.00 0.00 95 1013.7
20220528070245 59 51 0.0 0.0 0.00 0.00 0.00 95 1013.7
20220528065743 59 51 0.0 0.0 0.00 0.00 0.00 94 1013.7
20220528065242 59 51 0.0 0.0 0.00 0.00 0.00 94 1013.8
20220528064741 59 51 0.0 0.0 0.00 0.00 0.00 94 1013.7
20220528064239 60 51 0.0 0.0 0.00 0.00 0.00 94 1013.9
20220528063738 60 51 0.0 0.0 0.00 0.00 0.00 94 1014.1
20220528063236 60 51 0.0 0.0 0.00 0.00 0.00 94 1014.0
20220528062735 60 51 0.0 0.0 0.00 0.00 0.00 94 1014.0
20220528062234 60 51 0.0 0.0 0.00 0.00 0.00 94 1014.1
20220528061732 60 51 0.0 0.0 0.00 0.00 0.00 94 1014.1
20220528061230 60 51 0.0 0.0 0.00 0.00 0.00 93 1014.0
20220528060730 60 51 0.0 0.0 0.00 0.00 0.00 93 1014.1
20220528060228 60 51 0.0 0.0 0.00 0.00 0.00 93 1013.9
20220528055727 61 51 0.0 0.0 0.00 0.00 0.00 93 1014.1
20220528055228 61 51 0.0 0.0 0.00 0.00 0.00 93 1014.1
20220528054726 61 51 0.0 0.0 0.00 0.00 0.00 93 1014.3
20220528054226 61 51 0.0 0.0 0.00 0.00 0.00 93 1014.2
20220528053725 61 51 0.0 0.0 0.00 0.00 0.00 93 1014.4
20220528053224 61 51 0.0 0.0 0.00 0.00 0.00 93 1014.3
20220528052723 61 51 0.0 0.0 0.00 0.00 0.00 93 1014.4
20220528052221 61 51 0.0 0.0 0.00 0.00 0.00 92 1014.3
20220528051720 61 51 0.0 0.0 0.00 0.00 0.00 92 1014.4
20220528051220 61 51 0.0 0.0 0.00 0.00 0.00 92 1014.4
20220528050718 62 51 0.0 0.0 0.00 0.00 0.00 92 1014.5
20220528050218 62 51 0.0 0.0 0.00 0.00 0.00 91 1014.5
20220528045717 62 51 0.0 0.0 0.00 0.00 0.00 91 1014.5
20220528045215 62 51 0.0 0.0 0.00 0.00 0.00 91 1014.6
20220528044714 62 51 0.0 0.0 0.00 0.00 0.00 91 1014.4
20220528044213 62 51 0.0 0.0 0.00 0.00 0.00 91 1014.5
20220528043711 63 51 0.0 0.0 0.00 0.00 0.00 91 1014.6
20220528043211 63 51 0.0 0.0 0.00 0.00 0.00 90 1014.6
20220528042709 63 51 0.0 0.0 0.00 0.00 0.00 89 1014.5
20220528042208 63 51 0.0 0.0 0.00 0.00 0.00 89 1014.7
20220528041707 63 51 0.0 0.0 0.00 0.00 0.00 88 1014.7
20220528041205 63 51 0.0 0.0 0.00 0.00 0.00 88 1014.5
20220528040705 63 51 0.0 0.0 0.00 0.00 0.00 88 1014.7
20220528040203 63 51 0.0 0.0 0.00 0.00 0.00 88 1014.6
20220528035701 64 51 0.0 0.0 0.00 0.00 0.00 88 1014.7
20220528035159 64 51 0.0 0.0 0.00 0.00 0.00 87 1014.7
20220528034657 64 51 0.0 0.0 0.00 0.00 0.00 86 1014.8
20220528034156 64 51 0.0 0.0 0.00 0.00 0.00 87 1014.8
20220528033655 64 51 0.0 0.0 0.00 0.00 0.00 87 1014.7
20220528033154 64 51 0.0 0.0 0.00 0.00 0.00 86 1014.7
20220528032653 65 51 0.0 0.0 0.00 0.00 0.00 86 1014.7
20220528032154 65 51 0.0 0.0 0.00 0.00 0.00 85 1014.4
20220528031653 65 51 0.0 0.0 0.00 0.00 0.00 84 1014.7
20220528031153 66 51 0.0 0.0 0.00 0.00 0.00 84 1014.4
20220528030652 66 51 0.0 0.0 0.00 0.00 0.00 84 1014.6
20220528030150 66 51 0.0 0.0 0.00 0.00 0.00 83 1014.6
20220528025650 67 51 0.0 0.0 0.00 0.00 0.00 83 1014.5
20220528025149 67 51 0.0 0.0 0.00 0.00 0.00 82 1014.2
20220528024647 67 51 0.0 0.0 0.00 0.00 0.00 80 1014.3
20220528024146 67 51 0.0 0.0 0.00 0.00 0.00 81 1014.3
20220528023644 67 51 0.0 0.0 0.00 0.00 0.00 81 1014.3
20220528023143 68 51 0.0 0.0 0.00 0.00 0.00 80 1014.2
20220528022642 68 51 0.0 0.0 0.00 0.00 0.00 79 1014.1
20220528022141 68 51 0.0 0.0 0.00 0.00 0.00 78 1014.1
20220528021640 68 51 0.0 0.0 0.00 0.00 0.00 79 1014.3
20220528021139 69 51 0.0 0.0 0.00 0.00 0.00 79 1014.2
20220528020638 69 51 0.0 0.0 0.00 0.00 0.00 78 1014.2
20220528020136 70 51 0.0 0.0 0.00 0.00 0.00 77 1014.1
20220528015635 70 51 0.0 0.0 0.00 0.00 0.00 75 1014.0
20220528015134 71 51 0.0 0.0 0.00 0.00 0.00 74 1014.1
20220528014632 71 51 0.0 0.0 0.00 0.00 0.00 74 1013.9
20220528014131 71 51 0.0 0.0 0.00 0.00 0.00 72 1014.0
20220528013630 72 51 0.0 0.0 0.00 0.00 0.00 72 1014.1
20220528013128 72 51 0.0 0.0 0.00 0.00 0.00 70 1013.9
20220528012626 73 51 0.0 0.0 0.00 0.00 0.00 74 1013.6
20220528012125 73 51 0.0 0.0 0.00 0.00 0.00 70 1013.8
20220528011623 74 51 0.0 0.0 0.00 0.00 0.00 66 1013.7
20220528011123 74 51 0.0 0.0 0.00 0.00 0.00 64 1013.8
20220528010621 75 51 0.0 0.0 0.00 0.00 0.00 64 1013.6
20220528010120 75 51 0.0 0.0 0.00 0.00 0.00 64 1013.8
20220528005618 76 51 0.0 0.0 0.00 0.00 0.00 61 1013.8
20220528005117 76 51 0.0 0.0 0.00 0.00 0.00 61 1013.7
20220528004615 77 51 0.0 0.0 0.00 0.00 0.00 63 1013.9
20220528004112 77 51 0.0 0.0 0.00 0.00 0.00 63 1013.7
20220528003611 77 51 0.0 0.0 0.00 0.00 0.00 56 1013.7
20220528003110 78 51 0.0 0.0 0.00 0.00 0.00 59 1013.6
20220528002609 78 52 0.0 0.0 0.00 0.00 0.00 56 1013.8
20220528002107 79 51 0.0 0.0 0.00 0.00 0.00 56 1013.9
20220528001606 80 51 0.0 0.0 0.00 0.00 0.00 53 1013.7
20220528001104 80 52 0.0 0.0 0.00 0.00 0.00 52 1013.8
20220528000604 80 52 0.0 0.0 0.00 0.00 0.00 51 1013.8
20220528000101 81 48 0.0 0.0 0.00 0.00 0.00 47 1013.6
20220527235600 81 48 0.0 0.0 0.00 0.00 0.00 48 1014.0
20220527235059 82 47 0.0 0.0 0.00 0.00 0.00 47 1013.8
20220527234558 82 48 0.0 0.0 0.00 0.00 0.00 46 1013.7
20220527234057 82 48 0.0 0.0 0.00 0.00 0.00 45 1013.8
20220527233556 83 47 0.0 0.0 0.00 0.00 0.00 46 1013.8
20220527233054 83 48 0.0 0.0 0.00 0.00 0.00 45 1013.7
20220527232553 83 48 0.0 0.0 0.00 0.00 0.00 42 1013.8
20220527232052 83 48 0.0 0.0 0.00 0.00 0.00 41 1013.7
20220527231551 84 47 0.0 0.0 0.00 0.00 0.00 40 1013.8
20220527231049 84 47 0.0 0.0 0.00 0.00 0.00 41 1013.9
20220527230549 84 48 0.0 0.0 0.00 0.00 0.00 42 1014.0
20220527230047 84 48 0.0 0.0 0.00 0.00 0.00 40 1014.0
20220527225546 84 49 0.0 0.0 0.00 0.00 0.00 43 1014.1
20220527225045 85 48 0.0 0.0 0.00 0.00 0.00 41 1014.1
20220527224543 85 60 0.0 0.0 0.00 0.00 0.00 38 1014.1
20220527224041 86 60 0.0 0.0 0.00 0.00 0.00 37 1013.9
20220527223541 87 57 0.0 0.0 0.00 0.00 0.00 38 1014.3
20220527223039 88 354 0.0 0.0 0.00 0.00 0.00 37 1014.2
20220527222537 89 50 0.0 0.0 0.00 0.00 0.00 34 1014.4
20220527222036 89 319 0.0 0.0 0.00 0.00 0.00 33 1014.3
20220527221535 89 341 0.0 1.0 0.00 0.00 0.00 32 1014.2
20220527221032 89 342 0.0 0.0 0.00 0.00 0.00 33 1014.2
20220527220533 88 335 0.0 0.0 0.00 0.00 0.00 32 1014.2
20220527220031 88 46 1.0 1.0 0.00 0.00 0.00 33 1014.6
20220527215531 89 111 0.0 0.0 0.00 0.00 0.00 34 1014.3
20220527215027 90 58 1.0 1.0 0.00 0.00 0.00 32 1014.6
20220527214526 88 62 0.0 1.0 0.00 0.00 0.00 34 1014.6
20220527214025 90 54 0.0 0.0 0.00 0.00 0.00 32 1014.6
20220527213525 89 32 0.0 1.0 0.00 0.00 0.00 31 1014.6
20220527213025 89 11 0.0 0.0 0.00 0.00 0.00 32 1014.7
20220527212523 88 59 0.0 0.0 0.00 0.00 0.00 33 1014.6
20220527212024 89 326 2.0 2.0 0.00 0.00 0.00 29 1014.9
20220527211522 88 57 0.0 1.0 0.00 0.00 0.00 28 1015.2
20220527211021 88 340 2.0 3.0 0.00 0.00 0.00 30 1015.0
20220527210519 89 319 2.0 2.0 0.00 0.00 0.00 28 1015.3
20220527210018 89 327 2.0 3.0 0.00 0.00 0.00 28 1015.2
20220527205516 88 86 1.0 1.0 0.00 0.00 0.00 29 1015.2
20220527205015 89 67 1.0 1.0 0.00 0.00 0.00 32 1015.1
20220527204515 90 329 1.0 3.0 0.00 0.00 0.00 32 1015.3
20220527204011 89 13 0.0 0.0 0.00 0.00 0.00 36 1015.3
20220527203510 88 3 0.0 0.0 0.00 0.00 0.00 34 1015.4
20220527203011 89 74 2.0 2.0 0.00 0.00 0.00 36 1015.3
20220527202509 89 336 0.0 0.0 0.00 0.00 0.00 33 1015.4
20220527202006 88 65 0.0 0.0 0.00 0.00 0.00 31 1015.4
20220527201506 89 49 0.0 0.0 0.00 0.00 0.00 33 1015.5
20220527201005 88 344 0.0 0.0 0.00 0.00 0.00 31 1015.7
20220527200503 89 81 1.0 1.0 0.00 0.00 0.00 33 1015.6
20220527200001 90 352 0.0 0.0 0.00 0.00 0.00 34 1015.7
20220527195500 89 39 0.0 0.0 0.00 0.00 0.00 30 1015.8
20220527194959 89 338 1.0 1.0 0.00 0.00 0.00 31 1015.8
20220527194458 89 173 1.0 1.0 0.00 0.00 0.00 30 1016.0
20220527193957 89 298 1.0 1.0 0.00 0.00 0.00 31 1015.7
20220527193456 89 317 1.0 1.0 0.00 0.00 0.00 33 1015.9
20220527192954 89 340 0.0 0.0 0.00 0.00 0.00 30 1016.1
20220527192452 88 329 1.0 1.0 0.00 0.00 0.00 33 1016.2
20220527191951 88 293 0.0 0.0 0.00 0.00 0.00 33 1016.2
20220527191449 86 61 0.0 0.0 0.00 0.00 0.00 34 1016.2
20220527190948 87 28 1.0 1.0 0.00 0.00 0.00 35 1016.3
20220527190447 87 242 0.0 1.0 0.00 0.00 0.00 33 1016.2
20220527185946 86 3 0.0 0.0 0.00 0.00 0.00 35 1016.3
20220527185444 87 66 1.0 1.0 0.00 0.00 0.00 33 1016.4
20220527184942 87 23 0.0 1.0 0.00 0.00 0.00 35 1016.5
20220527184441 86 152 1.0 1.0 0.00 0.00 0.00 33 1016.5
20220527183939 86 65 2.0 2.0 0.00 0.00 0.00 34 1016.5
20220527183438 86 48 0.0 0.0 0.00 0.00 0.00 34 1016.7
20220527182936 86 290 2.0 2.0 0.00 0.00 0.00 33 1016.6
20220527182436 84 67 0.0 1.0 0.00 0.00 0.00 38 1016.7
20220527181935 85 76 1.0 1.0 0.00 0.00 0.00 36 1016.7
20220527181432 86 352 1.0 1.0 0.00 0.00 0.00 36 1016.6
20220527180932 85 26 1.0 1.0 0.00 0.00 0.00 34 1017.0
20220527180432 85 87 0.0 1.0 0.00 0.00 0.00 34 1016.8
20220527175930 85 53 1.0 1.0 0.00 0.00 0.00 34 1017.0
20220527175430 86 234 1.0 2.0 0.00 0.00 0.00 34 1016.7
20220527174928 85 260 1.0 1.0 0.00 0.00 0.00 35 1017.0
20220527174426 84 40 1.0 2.0 0.00 0.00 0.00 36 1017.1
20220527173926 85 41 0.0 0.0 0.00 0.00 0.00 35 1016.9
20220527173424 84 15 0.0 0.0 0.00 0.00 0.00 35 1017.1
20220527172923 85 88 1.0 1.0 0.00 0.00 0.00 31 1017.2
20220527172421 85 25 0.0 1.0 0.00 0.00 0.00 33 1017.2
20220527171920 85 17 0.0 0.0 0.00 0.00 0.00 36 1017.3
20220527171419 84 350 0.0 0.0 0.00 0.00 0.00 35 1017.3
20220527170918 84 26 0.0 0.0 0.00 0.00 0.00 37 1017.4
20220527170418 84 279 1.0 1.0 0.00 0.00 0.00 35 1017.2
20220527165917 84 16 0.0 1.0 0.00 0.00 0.00 36 1017.4
20220527165416 83 358 0.0 0.0 0.00 0.00 0.00 39 1017.3
20220527164915 82 324 1.0 1.0 0.00 0.00 0.00 35 1017.4
20220527164413 82 118 0.0 1.0 0.00 0.00 0.00 37 1017.4
20220527163912 82 268 0.0 0.0 0.00 0.00 0.00 37 1017.3
20220527163410 81 47 0.0 0.0 0.00 0.00 0.00 37 1017.3
20220527162909 81 299 0.0 0.0 0.00 0.00 0.00 37 1017.1
20220527162407 80 111 1.0 1.0 0.00 0.00 0.00 37 1017.5
20220527161906 80 17 0.0 0.0 0.00 0.00 0.00 39 1017.3
20220527161405 79 43 0.0 0.0 0.00 0.00 0.00 41 1017.3
20220527160904 79 275 1.0 1.0 0.00 0.00 0.00 42 1017.4
20220527160404 79 14 1.0 1.0 0.00 0.00 0.00 43 1017.3
20220527155902 78 4 0.0 1.0 0.00 0.00 0.00 44 1017.3
20220527155400 78 332 1.0 1.0 0.00 0.00 0.00 49 1017.4
20220527154859 78 142 0.0 1.0 0.00 0.00 0.00 47 1017.3
20220527154357 77 25 0.0 0.0 0.00 0.00 0.00 47 1017.1
20220527153857 77 326 0.0 0.0 0.00 0.00 0.00 51 1017.2
20220527153354 77 328 0.0 1.0 0.00 0.00 0.00 49 1017.5
20220527152852 77 302 0.0 0.0 0.00 0.00 0.00 55 1017.6
20220527152351 77 267 0.0 0.0 0.00 0.00 0.00 53 1017.2
20220527151850 76 28 0.0 0.0 0.00 0.00 0.00 55 1017.4
20220527151349 75 20 1.0 1.0 0.00 0.00 0.00 55 1017.4
20220527150848 75 34 0.0 0.0 0.00 0.00 0.00 58 1017.4
20220527150347 75 35 0.0 0.0 0.00 0.00 0.00 63 1017.3
20220527145846 74 35 0.0 0.0 0.00 0.00 0.00 60 1017.4
20220527145346 74 34 0.0 0.0 0.00 0.00 0.00 61 1017.3
20220527144843 73 35 0.0 0.0 0.00 0.00 0.00 60 1017.5
20220527144342 73 231 0.0 0.0 0.00 0.00 0.00 64 1017.4
20220527143841 72 231 0.0 0.0 0.00 0.00 0.00 67 1017.3
20220527143339 72 232 0.0 0.0 0.00 0.00 0.00 72 1017.3
20220527142839 71 232 0.0 0.0 0.00 0.00 0.00 74 1017.4
20220527142338 71 232 0.0 0.0 0.00 0.00 0.00 72 1017.6
20220527141836 71 232 0.0 0.0 0.00 0.00 0.00 76 1017.5
20220527141336 70 231 0.0 0.0 0.00 0.00 0.00 74 1017.2
20220527140836 69 231 0.0 0.0 0.00 0.00 0.00 81 1017.2
20220527140334 68 231 0.0 0.0 0.00 0.00 0.00 85 1017.2
20220527135833 67 230 0.0 0.0 0.00 0.00 0.00 86 1017.1
20220527135332 65 231 0.0 0.0 0.00 0.00 0.00 91 1017.3
20220527134831 64 231 0.0 0.0 0.00 0.00 0.00 94 1017.2
20220527134331 63 231 0.0 0.0 0.00 0.00 0.00 96 1017.1
20220527133830 62 308 0.0 0.0 0.00 0.00 0.00 96 1017.1
20220527133330 62 308 0.0 0.0 0.00 0.00 0.00 96 1017.1
20220527132828 61 308 0.0 0.0 0.00 0.00 0.00 96 1017.0
20220527132328 60 232 0.0 0.0 0.00 0.00 0.00 97 1017.0
20220527131827 59 232 0.0 0.0 0.00 0.00 0.00 97 1016.7
20220527131327 59 232 0.0 0.0 0.00 0.00 0.00 97 1016.8
20220527130826 58 232 0.0 0.0 0.00 0.00 0.00 97 1016.9
20220527130325 57 232 0.0 0.0 0.00 0.00 0.00 97 1016.8
20220527125825 57 232 0.0 0.0 0.00 0.00 0.00 97 1017.0
20220527125326 56 232 0.0 0.0 0.00 0.00 0.00 97 1016.7
20220527124824 56 232 0.0 0.0 0.00 0.00 0.00 97 1016.7
20220527124324 56 229 0.0 1.0 0.00 0.00 0.00 97 1016.5
20220527123822 55 241 0.0 0.0 0.00 0.00 0.00 97 1016.4
20220527123321 55 241 0.0 0.0 0.00 0.00 0.00 97 1016.4
20220527122822 55 241 0.0 0.0 0.00 0.00 0.00 97 1016.5
20220527122320 55 241 0.0 0.0 0.00 0.00 0.00 97 1016.4
20220527121819 54 241 0.0 0.0 0.00 0.00 0.00 97 1016.5
20220527121317 54 241 0.0 0.0 0.00 0.00 0.00 97 1016.5
20220527120816 54 242 0.0 0.0 0.00 0.00 0.00 96 1016.6
20220527120314 54 242 0.0 0.0 0.00 0.00 0.00 96 1016.3
20220527115813 54 242 0.0 0.0 0.00 0.00 0.00 96 1016.4
20220527115311 54 242 0.0 0.0 0.00 0.00 0.00 96 1016.3
20220527114811 53 241 0.0 0.0 0.00 0.00 0.00 96 1016.2
20220527114309 54 241 0.0 0.0 0.00 0.00 0.00 96 1016.2
20220527113808 54 241 0.0 0.0 0.00 0.00 0.00 96 1016.4
20220527113304 54 241 0.0 0.0 0.00 0.00 0.00 96 1016.4
20220527112803 54 241 0.0 0.0 0.00 0.00 0.00 96 1016.3
20220527112300 54 241 0.0 0.0 0.00 0.00 0.00 96 1016.0
20220527111758 54 241 0.0 0.0 0.00 0.00 0.00 96 1016.3
20220527111257 54 241 0.0 0.0 0.00 0.00 0.00 96 1016.1
20220527110755 54 241 0.0 0.0 0.00 0.00 0.00 96 1015.9
20220527110252 54 241 0.0 0.0 0.00 0.00 0.00 96 1016.0
20220527105751 54 241 0.0 0.0 0.00 0.00 0.00 96 1016.0
20220527105248 54 241 0.0 0.0 0.00 0.00 0.00 96 1015.7
20220527104746 54 241 0.0 0.0 0.00 0.00 0.00 96 1015.7
20220527104244 54 241 0.0 0.0 0.00 0.00 0.00 96 1015.6
20220527103743 54 241 0.0 0.0 0.00 0.00 0.00 96 1015.7
20220527103243 54 241 0.0 0.0 0.00 0.00 0.00 96 1015.5
20220527102740 54 241 0.0 0.0 0.00 0.00 0.00 96 1015.5
20220527102238 54 241 0.0 0.0 0.00 0.00 0.00 96 1015.4
20220527101738 55 241 0.0 0.0 0.00 0.00 0.00 96 1015.4
20220527101236 55 241 0.0 0.0 0.00 0.00 0.00 96 1015.3
20220527100736 55 241 0.0 0.0 0.00 0.00 0.00 96 1015.4
20220527100236 55 241 0.0 0.0 0.00 0.00 0.00 96 1015.3
20220527095735 55 241 0.0 0.0 0.00 0.00 0.00 96 1015.2
20220527095233 55 241 0.0 0.0 0.00 0.00 0.00 96 1015.2
20220527094731 55 241 0.0 0.0 0.00 0.00 0.00 96 1015.1
20220527094230 55 241 0.0 0.0 0.00 0.00 0.00 96 1015.1
20220527093730 55 241 0.0 0.0 0.00 0.00 0.00 96 1015.0
20220527093228 55 241 0.0 0.0 0.00 0.00 0.00 96 1015.1
20220527092728 55 241 0.0 0.0 0.00 0.00 0.00 95 1015.1
20220527092226 55 241 0.0 0.0 0.00 0.00 0.00 95 1014.9
20220527091725 55 241 0.0 0.0 0.00 0.00 0.00 95 1014.9
20220527091222 55 241 0.0 0.0 0.00 0.00 0.00 95 1014.9
20220527090720 56 241 0.0 0.0 0.00 0.00 0.00 95 1015.0
20220527090220 56 241 0.0 0.0 0.00 0.00 0.00 95 1014.9
20220527085718 56 241 0.0 0.0 0.00 0.00 0.00 94 1014.7
20220527085216 56 241 0.0 0.0 0.00 0.00 0.00 94 1014.9
20220527084715 56 241 0.0 0.0 0.00 0.00 0.00 94 1014.6
20220527084213 56 241 0.0 0.0 0.00 0.00 0.00 94 1014.6
20220527083712 56 241 0.0 0.0 0.00 0.00 0.00 94 1014.7
20220527083212 56 241 0.0 0.0 0.00 0.00 0.00 94 1014.8
20220527082710 56 241 0.0 0.0 0.00 0.00 0.00 94 1014.8
20220527082210 56 241 0.0 0.0 0.00 0.00 0.00 94 1014.8
20220527081708 56 241 0.0 0.0 0.00 0.00 0.00 94 1014.6
20220527081207 57 241 0.0 0.0 0.00 0.00 0.00 94 1014.7
20220527080706 57 241 0.0 0.0 0.00 0.00 0.00 95 1014.7
20220527080205 57 241 0.0 0.0 0.00 0.00 0.00 94 1014.7
20220527075703 57 241 0.0 0.0 0.00 0.00 0.00 94 1014.7
20220527075202 57 241 0.0 0.0 0.00 0.00 0.00 94 1014.7
20220527074701 57 241 0.0 0.0 0.00 0.00 0.00 94 1014.8
20220527074158 57 241 0.0 0.0 0.00 0.00 0.00 94 1014.7
20220527073658 57 241 0.0 0.0 0.00 0.00 0.00 94 1014.8
20220527073157 57 241 0.0 0.0 0.00 0.00 0.00 94 1014.8